星链-35521(STARLINK-35521)

导读 | 豆包AI

STARLINK-35521是美国太空探索技术公司(SpaceX)星链星座的一员,于2025年10月8日发射入轨。星链项目旨在构建全球低轨卫星互联网,为全球用户提供高速宽带接入服务。STARLINK-35521采用平板设计,搭载氪工质霍尔推进器,具备自主避撞能力,服役结束后会主动离轨再入大气层焚毁。它的入轨进一步扩充了星链星座规模,助力星链实现更完善的全球覆盖。

基本信息
目录编号:
65916
目录名称:
STARLINK-35521
国际标识:
2025-225G
轨道中心:
EARTH
卫星名称:
星链-35521
卫星全名:
星链-35521(STARLINK-35521)
卫星状态:
在轨 (已飞行157 天)
发射日期:
2025-10-08 UTC
国别 :
美国 (US)
星等 :
--
轨道信息
数据来源 国际轨道数据
星历时间: 2026-03-14T05:52:51+0800
13小时前
查看轨道信息
半长轴: 6853.317km
偏心率: 0.0001319
轨道倾角: 53.160°
近地点辐角 95.883°
升交点赤经 146.129°
平近点角 264.232°
近地点: 474.276km
远地点: 476.084km
周期: 94.105分钟
每日圈数: 15.302119
详细信息
固有亮度:
5
最大亮度:
2.5
卫星平台:
Starlink V1.0
覆盖范围:
全球
运营商:
太空探索技术公司
运营商所在国:
美国
制造商(研发单位):
太空探索技术公司
制造商所在国:
美国
使用方式:
暂无
卫星简介
Starlink 计划是 SpaceX 推出的全球卫星互联网项目,通过发射低轨道卫星,为全球尤其是偏远地区提供高速、低延迟的互联网服务。自 2019 年起,Starlink 已部署数千颗卫星,旨在缩小全球数字鸿沟,推动互联网普及。该项目还为军事、航空等行业提供通信支持,带来广泛经济效益。
2D轨道图
3D轨道图
轨道高度分析图
轨道倾角分析图
轨道综合分析图
查看轨道综合分析图